小惑星A/2021 E4

A/2021 E4

English version
Home page
Updated on November 6, 2022

---------------------------------------------------------------------

・ プロフィール

発見日 2021年3月7日
発見光度 21.2等
発見者 Mt. Lemmon Survey

・ 軌道要素

Epoch 2022 Aug. 9.0 TT = JDT 2459800.5
T 2022 Apr. 25.27129 TT                                 Rudenko
q   4.6759672            (2000.0)            P               Q
z  +0.0015328      Peri.   48.27079     -0.60688460     +0.78280970
 +/-0.0000042      Node   171.17408     +0.12814589     -0.07433572
e   0.9928329      Incl.  116.36152     +0.78439130     +0.61780513
H   13.5
>From 113 observations 2020 Feb. 4-2022 June 21, mean residual 0".4.

・ 光度変化

        H = 13.5  G = 0.15

---------------------------------------------------------------------

軌道要素はM.P.E.C. 2022-U349に掲載されたものです。
光度グラフはComet for Windowsで作成したものです。

---------------------------------------------------------------------

Copyright(C) Seiichi Yoshida (comet@aerith.net). All rights reserved.